Regional Weather Roundup
Issued by NWS

Home | Current Version | Previous Version | Graphics & Text | Print | Product List | Glossary On
Versions: 1 2 3 4 5 6 7 8 9 10 11 12 13 14 15 16 17 18 19 20 21 22 23 24 25 26 27 28 29 30 31 32 33 34 35 36 37 38 39 40 41 42 43 44 45 46 47 48 49 50
000
ASUS43 KLMK 270202
RWRKY
KENTUCKY REGIONAL WEATHER ROUNDUP
NATIONAL WEATHER SERVICE LOUISVILLE KY
900 PM EST THU FEB 26 2015

NOTE "FAIR" INDICATES FEW OR NO CLOUDS BELOW 12,000 FEET
WITH NO SIGNIFICANT WEATHER AND/OR OBSTRUCTIONS TO VISIBILITY.

KYZ001>023-026-027-061>063-070>075-270300-
WESTERN AND SOUTH CENTRAL KENTUCKY

CITY           SKY/WX    TMP DP  RH WIND       PRES   REMARKS
PADUCAH        PTCLDY    23  15  71 N16       30.38R WCI  10
HENDERSON      MOCLDY    23  12  63 NW8G21    30.37R WCI  14
OWENSBORO      CLOUDY    24  14  65 N15       30.35R WCI  11
HOPKINSVILLE   NOT AVBL
BOWLING GREEN  CLOUDY    28  19  69 NW8       30.28R WCI  20
GLASGOW        NOT AVBL
$$

KYZ024-025-028>034-038-045-046-053-270300-
NORTH CENTRAL KENTUCKY

CITY           SKY/WX    TMP DP  RH WIND       PRES   REMARKS
LOUISVILLE/SDF CLOUDY    22  10  60 N15       30.31R WCI   9
LOUISVILLE/LOU CLOUDY    21  10  62 N12G17    30.31R WCI   9
FORT KNOX      NOT AVBL
$$

KYZ035>037-039>044-047>052-055>060-089>105-270300-
NORTHEAST KENTUCKY

CITY           SKY/WX    TMP DP  RH WIND       PRES   REMARKS
LEXINGTON      FLURRIES  20  13  74 N15       30.24R WCI   6
COVINGTON      CLOUDY    15   7  70 N14       30.28R WCI   0
FRANKFORT      LGT SNOW  20  14  77 NW10      30.26R WCI   9
$$

KYZ054-064>069-076>088-106>120-270300-
SOUTHEAST KENTUCKY

CITY           SKY/WX    TMP DP  RH WIND       PRES   REMARKS
JACKSON        CLOUDY    28  16  60 N5        30.14R WCI  23
LONDON         CLOUDY    32  16  51 N8        30.15R WCI  25
SOMERSET       NOT AVBL
MIDDLESBORO    NOT AVBL
MONTICELLO     CLOUDY    31  21  66 NW10      30.22R WCI  22
$$




USA.gov is the U.S. government's official web portal to all federal, state and local government web resources and services.